This is the latest recevied weather packets stored in our database for station/object N5SRF. If no packets are shown the sender has not sent any weather packets the latest 10 day(s).
| Time | Temp. | Humidity | Pressure | Rain* | Wind** | Luminosity | Snow |
|---|---|---|---|---|---|---|---|
| 1777578734 | 18.89° C | 99% | 1015.8 hPa | 4.32 mm | - | 88 W/m² | - |
| 1777578429 | 18.89° C | 99% | 1016 hPa | 1.27 mm | - | 74 W/m² | - |
| 1777578125 | 18.89° C | 99% | 1015.8 hPa | 0 mm | - | 61 W/m² | - |
| 1777577821 | 18.89° C | 99% | 1016.2 hPa | 1.78 mm | - | 49 W/m² | - |
| 1777577517 | 19.44° C | 99% | 1015.8 hPa | 3.05 mm | - | 56 W/m² | - |
| 1777577214 | 19.44° C | 99% | 1015.9 hPa | 3.05 mm | - | 72 W/m² | - |
| 1777576910 | 18.89° C | 99% | 1015.4 hPa | 8.89 mm | - | 121 W/m² | - |
| 1777576605 | 18.89° C | 99% | 1015.7 hPa | 10.67 mm | - | 83 W/m² | - |
| 1777576300 | 18.89° C | 99% | 1016 hPa | 3.56 mm | - | 38 W/m² | - |
| 1777575997 | 18.89° C | 99% | 1016.1 hPa | 1.27 mm | - | 33 W/m² | - |
| 1777575693 | 18.89° C | 99% | 1016.1 hPa | 1.27 mm | - | 41 W/m² | - |
| 1777575389 | 18.89° C | 99% | 1015.7 hPa | 0 mm | - | 70 W/m² | - |
| 1777575085 | 18.89° C | 99% | 1016 hPa | 0 mm | - | 90 W/m² | - |
| 1777574781 | 18.89° C | 99% | 1016.3 hPa | 0 mm | - | 140 W/m² | - |
| 1777574479 | 18.89° C | 99% | 1016.4 hPa | 0 mm | - | 90 W/m² | - |
| 1777574175 | 19.44° C | 99% | 1016.3 hPa | 0 mm | - | 94 W/m² | - |
| 1777573870 | 19.44° C | 99% | 1016.7 hPa | 0 mm | - | 52 W/m² | - |
| 1777573565 | 19.44° C | 99% | 1016.4 hPa | 0 mm | - | 76 W/m² | - |
| 1777573262 | 19.44° C | 99% | 1016.2 hPa | 0 mm | - | 86 W/m² | - |
| 1777572958 | 19.44° C | 99% | 1016.1 hPa | 0 mm | - | 73 W/m² | - |
| 1777572654 | 19.44° C | 99% | 1016.4 hPa | 1.78 mm | - | 87 W/m² | - |
| 1777572353 | 19.44° C | 99% | 1016.4 hPa | 3.05 mm | - | 70 W/m² | - |
| 1777572050 | 18.89° C | 99% | 1016.4 hPa | 3.05 mm | - | 65 W/m² | - |
| 1777571750 | 19.44° C | 99% | 1016.4 hPa | 1.78 mm | - | 38 W/m² | - |
| 1777571448 | 19.44° C | 99% | 1016.8 hPa | 0 mm | - | 17 W/m² | - |
* Rain latest hour (hover to see other rain measurements)
** Current wind speed in m/s (hover to see current wind gust speed)